User: anonymous
Location: Vallejo Observatory
(38.1221°N, 122.2109°W)
Time: 03:22:15
(UTC-07:00)
Language:

MOS 1 Rocket - Orbit

View from above orbital plane
View from above orbital plane
View from above satellite
View from above satellite

Ground track
Ground track

The orbit data is extracted from the following two-line orbital elements,

1 17528U 87018B   14272.12791022  .00000712  00000-0  16685-3 0  4902
2 17528 097.4539 329.6602 0154592 166.9469 246.2374 14.50062633456066
Epoch (UTC): 29 September 2014 03:04:11
Eccentricity: 0.0154592
inclination: 97.4539°
perigee height: 615 km
apogee height: 835 km
right ascension of ascending node: 329.6602°
argument of perigee: 166.9469°
revolutions per day: 14.50062633
mean anomaly at epoch: 246.2374°
orbit number at epoch: 45606

The dashed part of the orbit path shows where the satellite is in the earth's shadow,  

DLR